This demonstration page uses our WeatherBlox Daily Observations layout. Learn more.

41.55636, -103.73856

Hourly Observations for April 5, 2019

Temp ( °F °C ) Dew Point ( °F °C ) Humidity (%) Winds ( mph kmh ) Pressure ( in mb ) Visibility ( mi km ) Precip ( " mm )
12:53 am 00:53 Mostly Cloudy 42 5.6 36 2.2 79 79 NNE 6 9 29.88 1012 10 16.09344 0 0
1:53 am 01:53 Cloudy 46 7.8 38 3.3 73 73 NNE 3 6 29.85 1011 10 16.09344 0 0
2:53 am 02:53 Cloudy 45 7.2 38 3.3 77 77 Calm 29.83 1010 10 16.09344 0 0
3:53 am 03:53 Cloudy 45 7.2 38 3.3 77 77 Calm 29.83 1010 10 16.09344 0 0
4:53 am 04:53 Mostly Cloudy 43 6.1 39 3.9 86 86 Calm 29.83 1010 10 16.09344 0 0
5:53 am 05:53 Partly Cloudy 43 6.1 36 2.2 76 76 N 6 9 29.83 1010 10 16.09344 0 0
6:53 am 06:53 Partly Cloudy 39 3.9 36 2.2 89 89 NNW 8 13 29.85 1011 10 16.09344 0 0
7:53 am 07:53 Partly Cloudy 47 8.3 39 3.9 74 74 Calm 29.85 1011 10 16.09344 0 0
8:53 am 08:53 Sunny 48 8.9 39 3.9 71 71 Calm 29.85 1011 10 16.09344 0 0
9:53 am 09:53 Sunny 53 11.7 38 3.3 57 57 Calm 29.85 1011 10 16.09344 0 0
10:53 am 10:53 Sunny 60 15.6 36 2.2 41 41 Calm 29.83 1010 10 16.09344 0 0
11:53 am 11:53 Sunny 66 18.9 36 2.2 33 33 Calm 29.8 1009 10 16.09344 0 0
12:53 pm 12:53 Sunny 70 21.1 35 1.7 28 28 WSW 5 7 29.77 1008 10 16.09344 0 0
1:53 pm 13:53 Sunny 73 22.8 33 0.6 23 23 W 5 7 29.71 1006 10 16.09344 0 0
2:53 pm 14:53 Partly Cloudy 74 23.3 33 0.6 22 22 undefined N/A 29.68 1005 10 16.09344 0 0
3:53 pm 15:53 Mostly Sunny 72 22.2 32 0 23 23 SW 5 7 29.68 1005 10 16.09344 0 0
4:53 pm 16:53 Mostly Cloudy 72 22.2 29 -1.7 20 20 W 8 13 29.65 1004 10 16.09344 0 0
5:53 pm 17:53 Mostly Cloudy 71 21.7 33 0.6 25 25 NNW 14 22 29.68 1005 10 16.09344 0 0
6:53 pm 18:53 Cloudy 68 20 31 -0.6 25 25 W 3 6 29.71 1006 10 16.09344 0 0
7:53 pm 19:53 Partly Cloudy 63 17.2 32 0 31 31 N 3 6 29.71 1006 10 16.09344 0 0
8:53 pm 20:53 Partly Cloudy 58 14.4 35 1.7 42 42 W 6 9 29.74 1007 10 16.09344 0 0
9:53 pm 21:53 Mostly Clear 51 10.6 36 2.2 56 56 N 9 15 29.74 1007 10 16.09344 0 0
10:53 pm 22:53 Mostly Clear 51 10.6 36 2.2 56 56 ESE 6 9 29.71 1006 10 16.09344 0 0
11:53 pm 23:53 Mostly Clear 48 8.9 37 2.8 66 66 N 7 11 29.74 1007 10 16.09344 0 0

Powered by AerisWeather